User: anonymous   Login
Location: Newark
(30.1000°N, 109.4667°E)
Time: 20:27:23
(UTC+00:00)
Language:

SR - Orbit

View from above orbital plane
View from above orbital plane
View from above satellite
View from above satellite

Ground track
Ground track

The orbit data is extracted from the following two-line orbital elements,

1 00046U 60007B   21023.59803038 -.00000016  00000-0  20066-4 0  9993
2 00046  66.6897 171.6822 0214477 325.4969  33.2368 14.49360323171014
Epoch (UTC): 23 January 2021 14:21:09
Eccentricity: 0.0214477
inclination: 66.6897°
perigee height: 575 km
apogee height: 880 km
right ascension of ascending node: 171.6822°
argument of perigee: 325.4969°
revolutions per day: 14.49360323
mean anomaly at epoch: 33.2368°
orbit number at epoch: 17101

The dashed part of the orbit path shows where the satellite is in the earth's shadow,  

DLR